Location: Dittersdorf
(50.6431°N, 11.8176°E)
Time: 19:56:16
(UTC+00:00)

Daily predictions for brighter satellites

Satellite Brightness Start Highest point End
(mag) Time Altitude Azimuth Time Altitude Azimuth Time Altitude Azimuth
Ariane Rocket 3.4 19:27:43 10° S 19:32:45 67° WSW 19:37:50 10° NNW
Meteor 1-14 Rocket 4.4 19:31:00 10° NNW 19:36:51 84° W 19:42:33 10° S
NOSS 3-3 (A) 4.2 19:31:18 10° SW 19:37:11 81° NW 19:44:01 10° NE
ARIANE 5 R/B 3.6 19:33:25 10° SE 19:37:14 31° ENE 19:41:04 10° N
NOSS 3-3 (C) 4.2 19:31:24 10° SW 19:37:17 81° NW 19:44:07 10° NE
Cosmos 1812 2.8 19:35:37 10° S 19:39:23 56° E 19:43:11 10° NNE
Cosmos 1833 Rocket 3.2 19:34:01 10° NW 19:39:36 60° WSW 19:45:08 10° SSE
ATLAS 2AS CENTAUR R/B 3.0 19:32:15 10° NW 19:39:46 72° NE 19:46:41 10° SE
Iridium 4 Rocket 4.4 19:34:27 10° SSE 19:39:54 41° E 19:45:22 10° NNE
USA 307 4.1 19:39:00 10° WNW 19:42:50 32° SW 19:46:39 10° SSE
USA 245 3.4 19:41:22 10° SE 19:43:20 26° ENE 19:45:30 10° N
USA 215 3.9 19:39:24 10° ENE 19:45:49 60° NNW 19:52:14 10° W
CZ-4C R/B 3.8 19:40:37 10° NW 19:47:30 47° WSW 19:55:22 10° SSE
Cosmos 158 Rocket 3.9 19:42:55 10° NNW 19:47:50 84° ENE 19:52:47 10° SSE
SL-24 R/B - RUBIN 2 4.2 19:42:34 10° NW 19:48:12 66° NE 19:53:07 10° SE
Cosmos 923 Rocket 4.2 19:44:18 10° NNW 19:49:33 65° ENE 19:54:49 10° SE
Cosmos 44 3.7 19:46:52 10° NW 19:52:20 70° NE 19:57:31 10° SE
Cosmos 1818 4.1 19:47:15 10° NW 19:52:38 53° NE 19:58:00 10° ESE
SOZ 4.3 19:50:44 10° W 19:53:16 81° NNW 19:55:36 10° ENE
Cosmos 2074 Rocket 4.1 19:49:09 10° N 19:55:28 70° ENE 20:01:45 10° SSE
USA 308 4.4 19:52:58 10° W 19:56:37 27° SW 20:00:14 10° SSE
Cosmos 2184 Rocket 4.1 19:50:27 10° N 19:56:40 69° ENE 20:02:48 10° SSE
Cosmos 1782 4.0 19:53:21 10° SSW 19:57:11 44° WNW 20:01:01 10° N
Cosmos 1500 4.3 19:57:20 10° NNW 20:00:54 42° W 20:04:26 10° SSW
Cosmos 1743 4.2 19:58:04 10° NNE 20:01:13 23° ENE 20:04:02 12° ESE
Meteor 1-5 Rocket 4.4 20:00:59 10° NNW 20:06:18 67° W 20:11:32 10° S
Gbstr 26 Del rocket 4.3 20:01:14 10° WNW 20:09:08 81° SSW 20:15:50 10° ESE
Terra 2.6 20:12:16 13° SE 20:16:06 38° ENE 20:20:31 10° N
MetOp-B 4.4 20:12:11 10° S 20:17:31 67° WSW 20:22:52 10° NNW
Meteor 1-11 Rocket 3.9 20:11:47 10° NNW 20:17:48 85° ENE 20:23:30 11° SSE
Cosmos 1461 4.3 20:14:16 10° SSE 20:18:00 24° ESE 20:21:43 10° ENE
Cosmos 2297 4.2 20:12:50 10° S 20:18:03 39° ESE 20:23:17 10° NE
Cosmos 1515 Rocket 4.1 20:16:55 10° SSW 20:21:15 60° WNW 20:25:35 10° N
Cosmos 1340 Rocket 3.3 20:17:50 10° N 20:21:49 48° ENE 20:24:45 17° SE
Cosmos 2228 Rocket 3.1 20:19:30 10° S 20:23:55 67° E 20:28:24 10° NNE
Tianhe-1 3.0 20:23:30 10° SSW 20:25:06 14° S 20:25:06 14° S
Cosmos 1869 Rocket 3.5 20:21:00 10° N 20:25:22 80° E 20:29:02 14° SSE
Resurs 01 Rocket 3.0 20:23:12 10° SSW 20:27:17 35° W 20:31:22 10° NNW
Cosmos 2112 Rocket 4.1 20:22:37 10° NNW 20:28:01 85° ENE 20:32:23 16° SSE
BREEZE M DEB (TANK) 2.4 20:26:33 10° W 20:30:12 35° SSW 20:31:13 23° SSE
Cosmos 2082 Rocket 2.9 20:25:03 10° NW 20:30:25 47° WSW 20:35:40 11° S
SPOT 1/Viking Rocket 4.0 20:27:58 10° S 20:33:06 61° WSW 20:38:16 10° NNW
ERS-1 Rocket 3.0 20:29:27 15° SSE 20:33:34 75° ENE 20:38:36 10° NNW
Spot 2 Rocket 3.7 20:35:19 13° S 20:39:53 69° WSW 20:44:56 10° NNW
Cosmos 1943 Rocket 2.6 20:35:06 10° S 20:40:18 43° ESE 20:45:33 10° NE
Cosmos 1937 Rocket 3.8 20:36:59 13° S 20:41:21 45° ESE 20:46:18 10° NE
ERBS 2.3 20:39:58 10° WNW 20:43:15 65° SW 20:44:57 25° SE
Cosmos 1707 Rocket 3.9 20:41:46 19° SSE 20:44:41 48° E 20:48:58 10° NNE
Cosmos 1536 3.0 20:41:41 10° NNW 20:45:43 71° W 20:48:44 17° S
CARTOSAT-1 3.8 20:42:25 15° S 20:45:57 65° W 20:50:15 10° NNW
CZ-2C R/B 4.3 20:41:49 10° N 20:46:15 57° WNW 20:50:45 10° SSW
SPOT 5 3.1 20:42:26 17° SSE 20:46:35 89° WSW 20:51:59 10° NNW
DNEPR-1 R/B 4.2 20:42:54 10° SSW 20:48:40 53° SE 20:53:27 10° NE
Cosmos 1271 Rocket 4.0 20:46:55 10° SW 20:50:44 43° WNW 20:54:35 10° N
Cosmos 2341 Rocket 4.2 20:46:43 10° N 20:53:07 67° ENE 20:57:43 20° SSE
Cosmos 1680 Rocket 4.0 20:48:15 10° NNW 20:53:27 55° WSW 20:57:31 16° S
Cosmos 1238 Rocket 3.8 20:50:01 10° N 20:55:54 58° ENE 20:59:05 22° SSE
SL-24 DEB 4.2 20:52:57 19° S 20:56:12 83° E 21:00:51 10° N
ISS -3.8 20:53:00 10° WSW 20:56:20 61° SSE 20:59:40 10° ENE
Cosmos 2278 Rocket 3.7 20:52:07 10° WSW 20:57:25 39° NW 21:02:44 10° NNE
Cosmos 2084 Rocket 4.0 20:54:20 10° NW 20:58:26 47° SW 21:00:52 23° S
Cosmos 1544 3.3 20:55:29 10° NNW 20:59:05 64° W 21:01:17 22° S
Cosmos 2218 Rocket 4.4 20:53:32 10° N 20:59:41 52° ENE 21:03:52 21° SE
SJ 16-02 3.2 20:55:44 10° WSW 20:59:44 32° WNW 21:03:46 10° N
Cosmos 2369 Rocket 2.9 20:58:46 21° SSE 21:01:41 35° ESE 21:06:45 10° NE
Cosmos 1975 3.7 20:59:56 10° N 21:03:39 36° ENE 21:05:24 24° ESE
Cosmos 1733 Rocket 3.0 21:05:47 10° N 21:10:08 79° E 21:12:25 27° SSE
SL-8 Rocket 4.1 21:06:23 10° N 21:12:45 73° E 21:16:50 23° SSE
ARIANE 5 R/B 3.9 21:10:14 13° SSW 21:13:39 33° W 21:17:37 10° NNW
Meteor 2-9 Rocket 4.3 21:09:44 10° N 21:15:30 73° ENE 21:18:52 25° SSE
RESURS DK-1 2.9 21:11:29 10° NNW 21:15:34 51° NE 21:17:43 25° ESE
SL-27 R/B 3.9 21:15:22 10° N 21:18:14 25° ENE 21:19:32 20° E
BREEZE-M DEB (TANK) 2.9 21:17:46 10° W 21:18:57 22° SW 21:18:57 22° SW
Cosmos 372 Rocket 4.0 21:20:07 24° S 21:23:05 58° ESE 21:28:06 10° NNE
USA 215 4.1 21:22:04 10° E 21:28:22 52° N 21:34:40 10° WNW
Cosmos 1898 Rocket 4.0 21:23:27 10° SW 21:28:43 61° WNW 21:34:02 10° NNE
Cosmos 1908 Rocket 4.0 21:25:38 10° N 21:30:01 50° ENE 21:31:53 30° SE
ATLAS 2AS CENTAUR R/B 3.8 21:23:48 10° NW 21:30:14 35° WSW 21:34:29 18° SSW
Cosmos 1743 4.0 21:33:32 10° NNW 21:37:03 34° W 21:39:06 20° SW
Cosmos 494 Rocket 4.4 21:32:40 10° NNW 21:37:46 53° ENE 21:40:30 26° SE
Cosmos 864 Rocket 4.4 21:31:40 10° N 21:37:51 85° ENE 21:41:23 27° SSE
Cosmos 1959 Rocket 4.4 21:34:11 10° N 21:40:26 89° W 21:43:59 27° S
Cosmos 2242 Rocket 4.2 21:44:02 33° SE 21:45:23 43° E 21:49:39 10° NNE
Meteor 1-19 Rocket 4.1 21:43:17 24° SSW 21:46:36 88° W 21:52:04 10° NNE
BREEZE-M R/B 3.0 21:46:23 10° W 21:48:00 33° WSW 21:48:00 33° WSW
H-2A R/B 4.2 21:45:28 10° N 21:49:32 50° WNW 21:52:23 18° SW
Cosmos 2297 Rocket 4.4 21:46:21 10° NNW 21:50:31 20° NE 21:54:38 10° E
Cosmos 44 Rocket 3.6 21:48:06 10° NW 21:53:21 68° NE 21:56:12 27° ESE
NOSS 2-1 (C) 4.4 21:49:08 10° NW 21:53:36 60° NE 21:57:57 19° ESE
Meteor 2-4 Rocket 3.8 21:51:00 31° S 21:53:45 65° E 21:59:15 10° NNE
Terra 3.1 21:51:09 18° SSW 21:53:55 32° W 21:58:11 10° NNW
Cosmos 1461 3.5 21:52:06 10° SW 21:56:46 64° NW 22:01:21 10° NE
Okean 1-7 3.3 21:56:31 39° SE 21:57:38 50° E 22:01:49 10° NNE
Cosmos 2150 Rocket 4.3 21:56:17 33° SSE 21:58:17 51° ESE 22:03:24 10° NNE
Cosmos 1862 Rocket 4.0 21:57:50 25° SW 22:00:09 56° WNW 22:04:26 10° N
NOSS 2-1 (D) 4.3 21:56:00 10° NW 22:00:31 66° NE 22:04:37 21° ESE
Cosmos 468 4.5 21:55:32 10° NNW 22:00:50 82° WSW 22:03:06 35° SSE
Cosmos 1703 Rocket 3.7 22:00:16 40° SSE 22:01:34 58° E 22:05:56 10° NNE
Cosmos 1782 Rocket 3.8 21:58:10 10° N 22:02:35 59° ENE 22:04:03 38° SE
Okean 1 4.3 22:00:55 21° SW 22:03:09 41° WNW 22:06:58 10° N
Cosmos 1833 4.2 21:57:58 10° NNW 22:03:46 80° WSW 22:06:28 33° SSE
Cosmos 1125 Rocket 3.8 22:04:17 35° SSE 22:05:58 47° ESE 22:10:58 10° NNE
ATLAS CENTAUR R/B 1.0 22:10:15 57° SSE 22:10:36 61° SE 22:14:23 10° NE
Cosmos 1607 3.9 22:06:38 19° SSW 22:11:27 75° SE 22:17:57 10° NE
COSMOS 2487 3.8 22:08:58 10° N 22:11:58 28° ENE 22:12:53 25° E
Cosmos 1821 Rocket 4.1 22:08:00 10° N 22:14:26 78° E 22:17:36 32° SSE
Cosmos 2366 rocket 4.5 22:09:29 10° NNW 22:15:29 52° W 22:18:59 25° SSW
Cosmos 2181 Rocket 4.5 22:16:13 19° SSW 22:20:33 54° WNW 22:26:35 10° N
Cosmos 1943 Rocket 3.4 22:18:49 10° WSW 22:24:06 41° NW 22:29:23 10° NNE
Meteor 1-13 Rocket 4.3 22:22:21 36° SSE 22:24:29 60° E 22:29:55 10° NNE
Spot 4 4.1 22:30:35 37° SSW 22:32:18 58° W 22:37:06 10° NNW
Cosmos 1867 3.7 22:28:40 17° SW 22:32:56 77° NW 22:38:27 10° NE
ISS -3.6 22:29:47 10° W 22:33:10 72° N 22:36:33 10° E
Cosmos 1656 Rocket 3.6 22:30:07 27° SW 22:33:16 82° WNW 22:38:52 10° NNE
Cosmos 2221 Rocket 4.4 22:40:00 34° SE 22:41:06 39° E 22:45:20 10° NNE
Cosmos 1733 3.6 22:39:27 10° N 22:43:11 52° ENE 22:43:52 45° ESE
Cosmos 1400 Rocket 4.2 22:41:12 10° N 22:44:51 30° ENE 22:46:15 24° ESE
Cosmos 2369 Rocket 3.0 22:40:29 12° SW 22:45:33 49° NW 22:51:05 10° NNE
Cosmos 724 4.4 22:44:34 33° SSW 22:47:25 68° ESE 22:53:38 10° NE
Cosmos 2344 4.3 22:38:42 10° NW 22:47:47 74° SW 22:56:38 22° SSE
ALOS 2 2.7 22:47:43 46° SSW 22:48:49 65° WSW 22:53:13 10° NNW
BREEZE-M DEB (TANK) 4.3 22:38:11 10° WNW 22:51:14 44° SW 22:52:48 36° S
SeaSat 1 4.0 22:47:51 10° ENE 22:51:29 20° ESE 22:52:11 20° ESE
Okean 3 3.4 22:51:44 51° SSW 22:52:46 82° W 22:57:01 10° N
SL-27 R/B 3.9 22:50:25 10° NW 22:53:01 25° W 22:53:01 25° W
RESURS DK-1 4.0 22:50:07 10° WNW 22:53:17 21° WSW 22:53:36 21° WSW
Lacrosse 5 2.1 22:54:17 44° S 22:55:13 50° SE 23:00:09 10° ENE
Cosmos 1356 Rocket 3.9 22:52:35 10° NNW 22:56:47 51° W 22:57:43 42° SW
NOSS 2-1 (E) 4.2 22:53:04 10° NW 22:57:56 66° SW 23:00:42 34° SSE
Nimbus 7 Rocket 4.4 22:52:44 10° NNE 22:58:40 72° ESE 23:01:10 36° S
Cosmos 1269 Rocket 3.9 22:55:56 10° NNW 23:01:15 82° WSW 23:03:10 41° SSE
Cosmos 1300 Rocket 3.5 22:57:28 10° NNW 23:01:54 81° W 23:02:56 52° S
Nadezhda 3 Rocket 4.1 22:59:44 30° SSW 23:02:53 68° WNW 23:09:05 10° N
SL-16 R/B 4.5 23:06:05 10° ESE 23:10:55 24° NE 23:15:45 10° N
USA 215 3.4 23:04:31 10° ESE 23:11:03 78° NNE 23:17:37 10° WNW
Aureole 2 4.2 23:09:10 10° NNW 23:12:01 72° WNW 23:12:01 72° WNW
Thor Agena Rocket 3.6 23:08:27 10° NNE 23:13:45 75° ESE 23:15:40 40° S
Sich 1 Rocket 4.0 23:11:06 10° NNW 23:15:33 54° W 23:16:39 42° SW
Cosmos 1805 3.5 23:14:09 10° NNW 23:17:58 52° W 23:18:27 48° WSW
COSMOS 2455 2.8 23:12:07 10° NW 23:18:12 84° NE 23:21:45 26° SE
Cosmos 1726 3.3 23:16:18 10° N 23:19:44 35° ENE 23:20:43 30° ESE
Cosmos 1605 Rocket 4.0 23:14:20 10° N 23:20:39 86° E 23:23:40 34° S
Okean 2 4.4 23:21:02 32° ESE 23:21:58 36° E 23:25:48 10° NNE
Cosmos 1378 4.4 23:22:00 28° W 23:22:54 32° WNW 23:26:17 10° N
Cosmos 1066 Rocket 4.5 23:22:33 32° SW 23:25:09 62° WNW 23:30:43 10° N
Okean 2 Rocket 3.3 23:22:50 10° NNW 23:27:10 57° W 23:28:09 45° SW
Cosmos 2151 Rocket 3.6 23:24:43 10° NNW 23:29:13 70° W 23:30:21 48° SSW
Cosmos 2227 Rocket 2.7 23:27:45 10° NNW 23:33:20 57° NE 23:37:44 16° SE
PSLV R/B 3.5 23:31:03 10° NNE 23:35:24 72° ESE 23:36:26 49° S
Cosmos 2297 Rocket 2.3 23:29:53 10° NNW 23:35:35 73° ENE 23:39:09 24° SE
Cosmos 1766 3.7 23:32:39 10° NNW 23:36:28 47° W 23:36:58 44° WSW
EO 1 Delta rocket 4.4 23:34:38 37° S 23:37:01 80° W 23:43:48 10° N
Cosmos 1656 4.4 23:40:31 30° SSE 23:42:22 39° ESE 23:47:30 10° NE
Timation 2 Rocket 4.0 23:39:29 10° NNW 23:45:30 76° ENE 23:49:54 19° SE
COSMOS 2487 4.1 23:43:58 10° NW 23:46:11 22° W 23:46:11 22° W
Cosmos 1953 4.1 23:44:44 10° N 23:48:11 27° ENE 23:50:30 16° ESE
ATLAS CENTAUR R/B 3.3 23:46:42 10° W 23:49:48 24° NNW 23:53:02 10° NNE
TSX-5 4.0 23:46:34 10° NNW 23:49:55 59° NE 23:51:39 29° SE
Cosmos 1378 Rocket 3.4 23:53:20 48° SSW 23:54:30 85° W 23:58:51 10° N
Cosmos 1975 Rocket 4.3 23:54:16 24° SE 23:55:56 32° E 23:59:48 10° NNE
